Wind_Speed
19 19 19 19 19 20 20 20 20 20 19 18 18 18 19 19 19 19 20 20 19 19 19 20 20 20 21 22 21 22 22 22 22 21 22 23 23 23 23 24 23 23 24
20 20 20 19 20 20 20 20 20 20 20 19 19 19 20 20 20 20 20 20 20 20 20 21 21 21 21 21 22 22 22 22 22 21 21 21 22 23 23 24 24 24 24
19 20 20 20 20 20 20 20 20 20 20 20 20 20 21 21 21 21 20 20 21 21 21 21 21 21 21 21 21 21 22 22 23 22 21 22 22 23 23 24 25 25 25
19 19 19 20 20 21 21 21 21 21 21 21 22 21 21 21 21 21 20 20 20 21 21 21 21 21 22 22 22 22 22 22 23 23 22 22 22 22 23 24 24 24 25
20 20 20 20 20 21 21 21 21 21 21 22 22 21 21 20 21 21 21 21 21 21 21 21 22 22 22 23 23 22 22 22 23 23 23 23 23 23 24 24 24 25 24
20 20 19 19 19 19 20 19 20 21 21 21 21 20 20 20 20 21 22 21 21 21 20 21 21 22 22 23 23 23 22 22 23 23 24 24 24 24 25 25 25 25 25
20 20 20 19 19 20 20 19 19 19 19 19 20 21 20 21 21 21 21 21 21 21 21 21 21 21 22 22 22 22 22 22 22 22 23 24 24 24 24 24 24 24 24
21 20 20 19 19 19 19 19 19 19 19 19 19 20 21 21 22 22 22 22 22 22 22 22 22 22 22 22 22 22 21 22 22 22 23 23 23 23 23 23 23 24 24
21 20 19 18 18 18 18 19 19 19 20 20 20 20 21 21 22 22 22 22 22 22 22 22 22 22 22 22 22 21 21 21 22 23 23 23 23 23 22 22 22 23 24
20 19 19 19 18 18 19 19 20 20 20 20 21 20 21 21 22 22 22 22 21 21 22 22 23 22 22 22 22 22 21 21 21 22 23 23 23 22 22 22 22 23 23
20 19 19 19 19 19 19 19 19 20 20 20 20 20 20 20 21 22 22 22 22 21 22 22 22 21 21 22 22 21 21 22 22 22 23 23 22 22 22 22 23 23 23
19 19 19 19 19 19 19 19 19 19 19 19 19 19 20 20 21 21 21 21 21 22 22 22 21 21 22 22 22 22 22 22 22 22 22 22 22 22 22 23 23 23 22
19 19 19 19 19 19 18 18 19 19 19 19 19 19 19 19 20 19 19 20 21 21 21 21 21 21 21 21 21 21 22 21 21 21 21 22 22 22 22 23 23 22 22
19 19 19 19 19 19 19 19 19 19 18 18 18 18 18 18 19 18 19 19 20 21 20 19 20 20 20 20 20 20 20 20 20 20 20 21 22 22 22 22 22 22 23
20 20 20 19 19 19 20 19 19 19 18 18 18 18 18 18 19 19 19 19 19 19 19 18 18 19 18 19 19 19 20 20 20 20 20 21 21 21 21 21 22 22 23
21 21 20 20 20 20 20 21 20 19 19 19 19 19 18 18 18 18 19 19 18 18 18 18 18 18 19 19 19 19 19 20 20 20 21 20 21 21 21 21 21 22 22
22 21 20 20 20 20 20 20 20 18 19 19 19 19 18 18 18 19 19 19 19 18 18 17 18 18 19 19 18 19 20 20 20 21 21 21 21 21 21 22 22 22 22
22 22 21 20 20 20 20 20 20 19 19 19 20 20 19 19 19 19 19 19 19 19 19 18 18 18 19 19 20 20 20 20 20 20 20 21 21 21 22 22 22 23 22
22 22 22 21 21 21 21 21 20 20 20 20 20 20 20 20 20 20 20 20 20 20 20 19 19 19 20 20 21 21 20 20 20 20 20 21 21 22 22 22 22 22 22
23 23 23 22 22 21 21 22 21 21 21 21 21 21 21 22 21 21 21 21 21 21 20 20 20 20 20 21 21 20 20 19 20 20 21 21 22 22 22 22 22 22 23
25 24 24 24 23 23 23 23 23 23 23 22 22 22 22 22 23 22 22 22 22 22 22 21 21 21 21 21 21 20 20 20 21 21 22 22 22 22 22 22 22 22 23
25 25 25 25 24 24 24 24 24 23 23 23 23 23 23 23 23 23 22 22 22 21 22 22 22 21 21 21 21 21 20 20 20 21 21 22 22 22 23 22 22 22 23
25 26 25 26 26 25 25 25 25 24 24 25 25 25 25 24 24 23 23 22 22 22 22 22 22 22 22 21 21 21 21 21 21 22 22 21 22 22 22 21 22 22 22
26 26 26 25 25 25 25 25 25 25 25 25 25 25 25 25 25 24 24 24 24 23 23 23 23 22 22 22 22 21 21 22 23 23 22 22 22 22 22 22 23 23 23
27 27 26 26 27 26 25 26 26 26 26 25 25 25 25 25 25 24 24 24 23 23 23 23 23 22 22 23 23 22 22 22 22 22 22 22 23 23 24 24 24 24 24
27 27 28 28 28 28 27 26 26 26 26 26 26 25 25 25 25 24 24 24 23 23 23 23 23 23 23 22 22 22 22 22 22 22 22 22 23 24 24 24 24 25 25
Wind_Direction
270 269 269 271 268 270 268 266 266 266 267 269 271 271 274 276 276 276 275 276 277 277 277 277 275 275 276 274 275 274 271 267 265 268 269 270 271 271 269 268 267 265 265
270 269 272 271 270 269 267 264 264 265 266 267 270 272 274 276 276 277 277 277 278 278 278 276 273 274 276 276 275 273 270 266 265 267 269 269 269 269 268 267 266 266 265
273 274 274 271 271 270 267 263 263 264 263 266 269 273 277 277 278 278 279 279 279 279 279 277 274 273 273 274 274 273 270 267 264 265 266 267 268 270 269 267 266 266 267
273 276 276 274 270 269 268 264 262 261 261 265 270 274 277 278 277 276 278 279 280 279 278 276 275 272 272 272 273 272 270 268 266 264 264 267 271 273 272 270 267 267 269
274 276 277 275 271 268 268 266 262 261 262 267 271 275 276 277 277 276 278 279 280 279 279 279 277 276 273 272 271 271 271 270 269 268 267 269 272 275 275 272 270 269 269
274 274 277 275 271 271 270 269 267 264 264 267 270 273 275 278 279 278 278 278 279 279 280 280 280 278 275 274 271 271 270 270 271 271 269 270 271 273 274 272 272 272 269
271 273 273 273 273 273 272 271 269 268 267 269 271 271 274 277 277 279 279 279 277 277 278 279 279 277 276 274 273 272 271 269 271 273 273 271 272 274 275 274 273 272 270
270 272 272 272 273 273 273 272 270 269 268 268 271 272 273 276 277 278 279 279 277 277 277 276 277 277 278 276 275 273 272 271 272 273 273 273 275 276 276 275 273 273 273
269 271 273 274 272 270 271 272 271 272 271 271 271 274 276 276 277 278 279 279 279 278 277 275 276 276 276 275 274 272 272 272 273 275 276 275 275 275 275 274 274 275 275
269 270 273 274 272 270 270 272 273 272 273 273 275 276 279 278 278 278 277 277 278 277 277 276 277 275 273 273 272 271 272 273 275 277 275 275 273 273 273 274 277 278 277
267 268 270 270 269 269 270 272 274 274 274 274 276 278 279 282 282 280 278 277 278 277 277 277 276 274 272 273 272 272 273 273 276 276 274 273 271 271 272 274 278 279 278
266 266 267 268 267 269 272 273 275 277 276 275 276 280 279 280 282 282 281 280 280 279 277 274 272 272 273 274 273 272 272 274 276 274 272 272 271 270 272 274 275 278 278
264 265 265 267 267 270 272 275 278 278 278 277 277 280 279 280 282 282 283 283 283 283 280 275 273 272 271 273 274 275 275 274 275 275 274 272 271 270 271 273 274 276 279
261 263 265 266 267 269 272 276 278 279 279 280 279 281 280 281 283 282 286 286 285 283 280 277 276 274 273 273 274 276 276 276 276 276 276 274 273 271 271 273 274 276 279
261 261 263 266 268 269 271 273 275 275 277 278 278 281 281 282 284 285 288 290 288 285 281 277 278 277 274 276 276 276 276 279 279 277 275 274 274 274 274 275 277 278 280
259 261 263 266 267 268 270 271 272 273 275 277 278 280 281 282 283 285 289 292 290 285 283 279 278 278 277 277 278 277 277 279 280 280 279 278 278 278 277 277 280 281 282
257 261 262 265 266 269 271 272 274 275 276 276 277 279 279 281 283 284 287 290 288 285 282 281 281 281 279 279 280 281 281 280 280 279 278 278 279 280 280 279 281 282 283
255 258 261 264 266 268 270 271 273 274 273 274 276 277 278 281 283 286 288 288 285 283 282 283 284 283 282 280 279 281 282 281 279 279 278 278 279 281 282 282 282 281 282
256 258 260 263 265 266 268 269 272 273 274 274 275 276 278 280 284 287 288 285 283 282 281 281 281 281 280 279 280 280 279 278 279 280 280 280 280 282 282 283 283 282 283
256 259 261 263 263 265 267 269 272 274 275 275 276 278 279 281 284 287 287 285 282 280 279 280 281 282 280 280 279 277 276 276 278 280 282 283 283 282 283 284 284 283 284
257 258 260 262 264 266 269 269 271 273 274 275 277 279 281 281 282 285 284 283 281 280 280 281 282 282 282 281 279 276 276 277 278 279 282 284 285 285 286 286 286 286 287
258 260 262 264 266 267 269 271 271 272 274 275 276 278 280 282 282 283 283 281 281 280 280 280 280 281 282 280 277 275 276 278 280 280 282 285 285 285 286 286 286 286 288
259 262 264 265 266 268 268 270 271 270 272 274 276 278 280 281 282 282 279 279 280 281 281 280 279 279 280 281 279 276 277 279 280 281 283 284 285 285 284 286 287 287 289
258 261 263 265 266 266 267 269 270 271 272 273 275 278 279 280 282 282 281 281 280 280 279 278 279 279 278 278 279 278 278 279 279 280 281 282 284 285 285 286 287 287 287
257 260 262 264 265 267 268 269 270 271 271 272 274 276 277 279 280 280 280 280 279 278 278 278 277 277 278 277 276 276 277 278 278 278 280 281 282 283 284 284 285 287 288
259 261 262 264 266 266 268 269 270 270 271 271 273 274 276 278 279 279 279 279 279 278 277 277 276 276 277 276 277 277 277 278 278 279 279 281 282 283 283 283 285 287 288
Height
5795 5795 5796 5796 5796 5797 5797 5798 5798 5799 5799 5799 5799 5799 5799 5799 5798 5797 5796 5796 5795 5795 5794 5793 5793 5792 5791 5791 5791 5790 5790 5790 5791 5791 5791 5791 5791 5791 5791 5791 5791 5792 5792
5790 5790 5790 5790 5790 5791 5791 5792 5792 5793 5793 5794 5794 5794 5794 5793 5792 5791 5791 5790 5789 5789 5788 5787 5786 5786 5785 5785 5784 5784 5784 5784 5784 5785 5785 5785 5785 5785 5785 5785 5785 5785 5786
5785 5785 5784 5784 5784 5785 5785 5786 5786 5787 5787 5788 5788 5788 5787 5787 5786 5785 5784 5784 5783 5782 5781 5781 5780 5779 5779 5778 5778 5777 5777 5777 5778 5778 5779 5779 5779 5778 5778 5778 5779 5779 5779
5779 5779 5779 5779 5778 5779 5779 5780 5780 5781 5781 5782 5782 5782 5781 5781 5780 5779 5778 5777 5776 5776 5775 5774 5773 5773 5772 5772 5771 5771 5771 5771 5771 5771 5772 5772 5772 5772 5772 5772 5772 5771 5772
5773 5773 5773 5773 5773 5773 5773 5774 5774 5775 5775 5776 5776 5776 5775 5775 5774 5773 5772 5771 5770 5769 5768 5768 5767 5766 5765 5765 5765 5764 5764 5764 5764 5764 5765 5765 5765 5765 5765 5765 5765 5765 5764
5768 5768 5768 5767 5767 5767 5768 5768 5768 5769 5769 5770 5770 5770 5770 5769 5768 5767 5766 5765 5764 5763 5762 5761 5760 5759 5759 5758 5758 5757 5757 5757 5758 5757 5758 5758 5758 5758 5758 5757 5758 5758 5758
5763 5763 5762 5762 5761 5761 5762 5762 5763 5763 5763 5764 5764 5764 5764 5763 5762 5761 5760 5759 5758 5757 5756 5755 5754 5753 5752 5751 5751 5750 5750 5750 5751 5751 5751 5751 5751 5751 5751 5750 5750 5750 5751
5757 5757 5756 5756 5755 5755 5756 5756 5757 5757 5758 5758 5758 5758 5757 5756 5755 5754 5753 5752 5751 5750 5749 5748 5747 5746 5745 5744 5744 5744 5744 5744 5744 5744 5744 5743 5743 5743 5743 5743 5743 5743 5743
5752 5752 5751 5750 5750 5750 5750 5751 5751 5752 5752 5752 5752 5751 5751 5750 5749 5748 5747 5746 5745 5744 5742 5741 5740 5739 5738 5738 5737 5737 5737 5737 5737 5737 5737 5737 5736 5736 5736 5736 5736 5736 5736
5746 5746 5746 5745 5745 5745 5745 5745 5746 5746 5746 5746 5745 5745 5744 5743 5742 5741 5740 5739 5738 5737 5736 5734 5734 5732 5732 5731 5731 5731 5731 5730 5730 5729 5729 5729 5729 5729 5729 5730 5730 5729 5729
5740 5740 5740 5740 5740 5740 5740 5740 5740 5740 5740 5740 5739 5739 5738 5737 5736 5735 5733 5732 5731 5730 5729 5728 5727 5726 5726 5725 5724 5724 5724 5723 5723 5723 5722 5722 5722 5723 5723 5723 5722 5722 5722
5734 5734 5734 5734 5735 5735 5735 5734 5734 5734 5734 5733 5733 5732 5731 5730 5729 5728 5726 5725 5724 5723 5722 5721 5720 5720 5719 5719 5718 5718 5717 5717 5716 5716 5716 5716 5716 5716 5716 5716 5715 5715 5714
5728 5728 5729 5729 5729 5729 5729 5729 5728 5728 5727 5727 5726 5726 5725 5724 5723 5721 5720 5719 5717 5716 5715 5714 5714 5713 5713 5713 5712 5712 5711 5711 5710 5710 5709 5709 5709 5710 5709 5709 5708 5708 5707
5722 5723 5723 5723 5723 5723 5723 5723 5722 5722 5721 5721 5720 5720 5719 5718 5717 5716 5714 5713 5711 5710 5709 5708 5707 5707 5707 5707 5706 5706 5705 5705 5705 5704 5703 5703 5703 5703 5703 5702 5702 5701 5701
5716 5717 5717 5717 5717 5717 5717 5717 5717 5716 5715 5715 5715 5714 5713 5713 5711 5710 5708 5707 5705 5704 5703 5702 5701 5701 5701 5701 5701 5700 5700 5700 5699 5698 5698 5697 5697 5697 5696 5696 5695 5695 5694
5710 5710 5711 5711 5712 5711 5711 5711 5710 5710 5710 5709 5709 5709 5708 5707 5705 5704 5703 5701 5700 5699 5697 5697 5696 5696 5695 5695 5695 5694 5694 5694 5693 5693 5692 5692 5691 5691 5690 5690 5689 5688 5688
5703 5704 5704 5705 5705 5705 5705 5705 5704 5704 5704 5703 5703 5702 5702 5701 5700 5698 5697 5696 5694 5693 5692 5691 5691 5690 5690 5690 5689 5689 5689 5688 5688 5687 5687 5686 5686 5685 5684 5683 5683 5682 5681
5697 5697 5698 5699 5699 5699 5699 5699 5698 5698 5698 5697 5697 5696 5696 5694 5693 5692 5691 5690 5689 5688 5687 5686 5686 5685 5684 5684 5683 5683 5682 5682 5681 5681 5680 5680 5679 5678 5678 5677 5676 5675 5674
5690 5691 5692 5692 5692 5693 5693 5693 5692 5692 5692 5691 5691 5690 5689 5688 5687 5686 5685 5684 5683 5682 5681 5680 5680 5679 5678 5677 5676 5676 5675 5675 5675 5675 5674 5673 5673 5672 5671 5670 5669 5667 5666
5684 5684 5685 5685 5685 5686 5686 5686 5686 5686 5685 5685 5684 5684 5683 5682 5681 5680 5678 5677 5676 5675 5675 5674 5673 5672 5671 5670 5669 5669 5669 5669 5669 5668 5668 5667 5666 5665 5664 5663 5662 5661 5660
5676 5677 5678 5678 5678 5679 5678 5679 5679 5679 5678 5678 5678 5677 5676 5675 5674 5673 5672 5671 5670 5669 5668 5668 5667 5666 5664 5663 5662 5662 5662 5662 5662 5662 5661 5660 5659 5658 5657 5656 5655 5654 5652
5668 5669 5670 5670 5671 5671 5671 5671 5671 5671 5671 5671 5670 5669 5669 5668 5667 5666 5665 5664 5663 5662 5662 5661 5660 5659 5658 5657 5656 5656 5656 5656 5655 5655 5654 5653 5652 5652 5650 5649 5648 5647 5645
5660 5661 5662 5662 5663 5663 5663 5663 5663 5663 5663 5663 5662 5662 5661 5660 5659 5658 5657 5657 5656 5655 5655 5654 5653 5652 5652 5651 5650 5650 5649 5649 5649 5648 5648 5647 5646 5645 5644 5642 5641 5640 5638
5652 5653 5654 5654 5654 5655 5655 5655 5655 5655 5655 5655 5654 5653 5653 5652 5651 5650 5650 5649 5649 5648 5647 5647 5646 5645 5644 5644 5643 5643 5642 5642 5642 5641 5641 5640 5639 5638 5637 5635 5634 5633 5631
5643 5644 5645 5646 5646 5646 5647 5647 5647 5647 5647 5646 5646 5645 5645 5644 5643 5642 5642 5641 5641 5640 5640 5639 5638 5638 5637 5637 5636 5636 5635 5635 5634 5634 5633 5633 5632 5631 5629 5628 5627 5625 5624
5635 5636 5636 5637 5637 5638 5638 5638 5638 5638 5638 5638 5638 5637 5637 5636 5635 5635 5634 5633 5633 5633 5632 5632 5631 5630 5630 5629 5629 5628 5628 5628 5627 5627 5626 5625 5624 5623 5622 5621 5619 5618 5616